STARLINK-34822, 65086

Orbit data source: Space-Track

STARLINK-34822, 65086 is a payload satellite owned by SpaceX/Seattle (US) in LEO that was launched on Mon, 04 Aug 2025 UTC via an FALCON 9 launch vehicle from the Air Force Eastern Test Range (AFETR). Payload-class satellites include a variety of spacecraft equipped with specific instruments for various scientific and technological missions. These include communications satellites like Starlink; space stations such as the ISS; scientific satellites like the Hubble; Earth observation satellites from companies like Planet Labs, Umbra, and HawkEye 360; GPS; miniature CubeSats for education and research; and military/defense satellites.

Not visible in the next 10 days
Identifier
65086, 2025-167J
Orbit
LEO
Country
Flag of USUS
Related business
Manufacturer
SpaceX/Seattle
Mission
Operational spacecraft
Bus & Motor
STARLINK V2MO, Unknown motor
Mass
575 kg wet, ~530 kg dry
Launch date (UTC)
2025-08-04 (1 month ago)
Launch vehicle
FALCON 9
Launch site
Air Force Eastern Test Range (AFETR)
Object type
Payload
Rocket body
Debris
Shape & HBR
Unknown
Radar Cross Section
Large (>1 m²)

Expand to show TLE details & history
Last TLE update: 5 hours ago

TLE from 5 hours ago
0 STARLINK-34822
1 65086U 25167J   25243.56113493  .00417269  00000-0  27000-2 0  9994
2 65086  53.1576 193.1313 0001499  62.5575 297.5597 15.74314638  4323
Epoch: 2025-08-31T13:28Z
TLE epoch observation values (Epoch: 2025-08-31T13:28:02.057Z)
Latitude
-0.00006°
Longitude
11.14337°
Altitude
347.032 km
Speed
7.702 km/s
True Right ascension
12h 52m 31s
True Declination
0° 00' 00"
Sunlit
Object was in daylight at epoch
Visualization orbit readout
Latitude
Unknown
Longitude
Unknown
Altitude
Unknown
Speed
Unknown
Apparent Right ascension
Unknown
Apparent Declination
Unknown
Sunlit
N/A
Visualization observer readout
Local Sidereal Time
10:03:48
Azimuth
Unknown
Elevation
Unknown
Doppler factor
Unknown
Orbital elements
Apogee altitude
347.852 km
Perigee altitude
345.836 km
Semi-major axis
6,724.981 km
Eccentricity
0.00015
Inclination
53.1576°
RAAN
193.1313°
Arg. of periapsis
62.5575°
True anomaly
297.54447°
Mean anomaly
297.5597°
Eccentric anomaly
297.55209°
Mean motion
3.93556 °/min
Orbital period
91.47 mins
BSTAR
0.0027
Loading maneuver chart data...
Computing Atmospheric mass density...
Loading historical data...
Loading historical data...
Loading historical data...
Loading historical data...
Loading historical data...
Loading historical data...
Loading historical data...

Documentation

Showing up to 5 results
|